Rochester/St. Mary\'s Hospita, MN

2:17 AM CST on December 09, 2019 (GMT -0600)
Rochester/St. Mary\'s Hospita

Weather History for K9MN - November, 2019

Change the Weather History Date:

Tuesday, November 12, 2019

  Actual Average (KRST) Record (KRST)
Temperature  
Mean Temperature 10 °F -  
Max Temperature 16 °F 38 °F 62 °F (2001)
Min Temperature 5 °F 22 °F -1 °F (1986)
Degree Days  
Heating Degree Days 54    
Moisture  
Dew Point 0 °F    
Average Humidity 62    
Maximum Humidity 82    
Minimum Humidity 41    
Precipitation  
Precipitation 0.00 in - - ()
Sea Level Pressure  
Sea Level Pressure 30.37 in    
Wind  
Wind Speed 7 mph ()    
Max Wind Speed 17 mph    
Max Gust Speed 28 mph    
Visibility 10.0 miles    
Events      
Averages and records for this station are not official NWS values.
T = Trace of Precipitation, MM = Missing Value Source: Averaged Metar Reports

Daily Weather History Graph

Daily Weather History Graph

Search for Another Location

Airport or City:

Astronomy

Nov. 12, 2019 Rise Set
Actual Time 7:00 AM CST 4:46 PM CST
Civil Twilight 6:29 AM CST 5:17 PM CST
Nautical Twilight 5:55 AM CST 5:52 PM CST
Astronomical Twilight 5:21 AM CST 6:26 PM CST
Moon 5:15 PM CST (11/12) 6:51 AM CST (11/12)
Length of Visible Light 10h 47m
Length of Day
9h 46m
Full, 100% of the Moon is Illuminated
Nov 12
Full
Nov 19
Last Quarter
Nov 26
New
Dec 4
First Quarter
Dec 11
Full

Hourly Weather History & Observations

Time (CST) Temp. Windchill Dew Point Humidity Pressure Visibility Wind Dir Wind Speed Gust Speed Precip Events Conditions
12:15 AM 7.3 °F -7.1 °F -2.2 °F 65% 30.55 in 10.0 mi WNW 10.4 mph - N/A   Clear
12:35 AM 7.3 °F -1.3 °F -1.5 °F 67% 30.56 in 10.0 mi WNW 4.6 mph - N/A   Clear
12:56 AM 6.8 °F -4.8 °F -1.8 °F 68% 30.56 in 10.0 mi WNW 6.9 mph - N/A   Clear
1:15 AM 6.6 °F -6.1 °F -1.5 °F 69% 30.55 in 10.0 mi WNW 8.1 mph - N/A   Clear
1:35 AM 6.4 °F -6.3 °F -1.1 °F 71% 30.55 in 10.0 mi WNW 8.1 mph - N/A   Clear
1:55 AM 6.3 °F -7.5 °F -0.8 °F 73% 30.54 in 10.0 mi WNW 9.2 mph - N/A   Clear
1:56 AM 6.3 °F -7.5 °F -0.9 °F 72% 30.55 in 10.0 mi WNW 9.2 mph - N/A   Clear
2:15 AM 5.9 °F -7.0 °F -1.3 °F 72% 30.54 in 10.0 mi WNW 8.1 mph - N/A   Clear
2:16 AM 5.9 °F -5.8 °F -1.3 °F 72% 30.54 in 10.0 mi WNW 6.9 mph - N/A   Clear
2:35 AM 6.3 °F -2.6 °F -0.8 °F 73% 30.54 in 10.0 mi NW 4.6 mph - N/A   Clear
2:55 AM 5.9 °F -4.5 °F -0.9 °F 73% 30.53 in 10.0 mi NW 5.8 mph - N/A   Clear
2:56 AM 5.9 °F -4.5 °F -0.9 °F 73% 30.53 in 10.0 mi WNW 5.8 mph - N/A   Clear
3:15 AM 5.7 °F -4.8 °F -1.3 °F 73% 30.54 in 10.0 mi WNW 5.8 mph - N/A   Clear
3:16 AM 5.7 °F -4.8 °F -1.3 °F 73% 30.54 in 10.0 mi WNW 5.8 mph - N/A   Clear
3:35 AM 6.4 °F -0.5 °F -0.4 °F 74% 30.54 in 10.0 mi West 3.5 mph - N/A   Clear
3:55 AM 6.4 °F -2.4 °F 0.1 °F 75% 30.54 in 10.0 mi West 4.6 mph - N/A   Clear
4:15 AM 6.1 °F -2.8 °F 0.3 °F 77% 30.54 in 10.0 mi West 4.6 mph - N/A   Clear
4:16 AM 6.3 °F -4.1 °F 0.5 °F 77% 30.54 in 10.0 mi West 5.8 mph - N/A   Clear
4:35 AM 5.9 °F -3.0 °F 0.5 °F 78% 30.54 in 10.0 mi West 4.6 mph - N/A   Clear
4:36 AM 6.1 °F -2.8 °F 0.7 °F 78% 30.53 in 10.0 mi West 4.6 mph - N/A   Clear
4:55 AM 6.3 °F -4.1 °F 1.2 °F 80% 30.53 in 10.0 mi West 5.8 mph - N/A   Clear
5:15 AM 5.7 °F -4.8 °F 1.0 °F 81% 30.53 in 10.0 mi West 5.8 mph - N/A   Clear
5:35 AM 5.7 °F -3.2 °F 0.9 °F 80% 30.53 in 10.0 mi West 4.6 mph - N/A   Clear
5:36 AM 5.7 °F -1.3 °F 1.0 °F 81% 30.53 in 10.0 mi West 3.5 mph - N/A   Clear
5:55 AM 5.9 °F -5.8 °F 1.6 °F 82% 30.52 in 10.0 mi WSW 6.9 mph - N/A   Clear
5:56 AM 5.9 °F -4.5 °F 1.6 °F 82% 30.52 in 10.0 mi West 5.8 mph - N/A   Clear
6:15 AM 5.9 °F -3.0 °F 1.4 °F 82% 30.51 in 10.0 mi West 4.6 mph - N/A   Clear
6:35 AM 5.0 °F -5.6 °F 0.5 °F 82% 30.51 in 10.0 mi West 5.8 mph - N/A   Clear
6:55 AM 5.2 °F -5.4 °F 0.7 °F 82% 30.51 in 10.0 mi West 5.8 mph - N/A   Clear
6:56 AM 5.2 °F -3.8 °F 0.7 °F 82% 30.51 in 10.0 mi West 4.6 mph - N/A   Clear
7:15 AM 5.7 °F -1.3 °F 1.2 °F 82% 30.51 in 10.0 mi West 3.5 mph - N/A   Clear
7:16 AM 5.5 °F -1.5 °F 1.0 °F 82% 30.51 in 10.0 mi West 3.5 mph - N/A   Clear
7:55 AM 7.2 °F - 2.1 °F 80% 30.51 in 10.0 mi Calm Calm - N/A   Clear
8:15 AM 7.9 °F -0.7 °F 2.1 °F 77% 30.51 in 10.0 mi WSW 4.6 mph - N/A   Clear
8:16 AM 7.9 °F -0.7 °F 2.1 °F 77% 30.51 in 10.0 mi WSW 4.6 mph - N/A   Clear
8:35 AM 9.0 °F - 2.5 °F 75% 30.51 in 10.0 mi Calm Calm - N/A   Clear
8:36 AM 9.0 °F 2.4 °F 2.5 °F 75% 30.51 in 10.0 mi West 3.5 mph - N/A   Clear
9:15 AM 10.0 °F -1.9 °F 1.2 °F 68% 30.51 in 10.0 mi WSW 8.1 mph - N/A   Clear
9:35 AM 10.6 °F 2.5 °F 0.5 °F 64% 30.51 in 10.0 mi WSW 4.6 mph - N/A   Clear
9:36 AM 10.8 °F - 0.5 °F 63% 30.51 in 10.0 mi Calm Calm - N/A   Clear
9:55 AM 11.8 °F 2.5 °F -0.4 °F 58% 30.50 in 10.0 mi SSW 5.8 mph - N/A   Clear
9:56 AM 11.7 °F 2.3 °F -0.6 °F 58% 30.50 in 10.0 mi SSW 5.8 mph - N/A   Clear
10:15 AM 12.6 °F 3.4 °F -0.0 °F 57% 30.50 in 10.0 mi WSW 5.8 mph - N/A   Clear
10:35 AM 12.9 °F 3.8 °F -1.8 °F 52% 30.49 in 10.0 mi West 5.8 mph - N/A   Clear
10:55 AM 12.7 °F 3.6 °F -2.6 °F 51% 30.48 in 10.0 mi WSW 5.8 mph - N/A   Clear
11:15 AM 13.8 °F 3.7 °F -1.5 °F 51% 30.46 in 10.0 mi South 6.9 mph - N/A   Clear
11:16 AM 13.8 °F 4.9 °F -1.7 °F 50% 30.46 in 10.0 mi South 5.8 mph - N/A   Clear
11:35 AM 13.1 °F 0.9 °F -3.6 °F 47% 30.44 in 10.0 mi SSW 9.2 mph - N/A   Clear
11:36 AM 13.1 °F 1.8 °F -3.8 °F 47% 30.44 in 10.0 mi SSW 8.1 mph - N/A   Clear
11:55 AM 14.7 °F 5.9 °F -1.8 °F 48% 30.43 in 10.0 mi SW 5.8 mph - N/A   Clear
12:15 PM 14.9 °F 6.1 °F -2.6 °F 46% 30.42 in 10.0 mi SSW 5.8 mph - N/A   Clear
12:35 PM 14.7 °F 9.0 °F -2.9 °F 46% 30.41 in 10.0 mi South 3.5 mph - N/A   Clear
12:36 PM 14.7 °F 9.0 °F -2.9 °F 46% 30.41 in 10.0 mi SSW 3.5 mph - N/A   Clear
12:55 PM 16.0 °F 6.3 °F -2.7 °F 44% 30.40 in 10.0 mi SSE 6.9 mph - N/A   Clear
12:56 PM 16.0 °F 6.3 °F -2.9 °F 43% 30.40 in 10.0 mi SE 6.9 mph - N/A   Clear
1:15 PM 15.6 °F 4.0 °F -2.7 °F 44% 30.39 in 10.0 mi South 9.2 mph - N/A   Clear
1:35 PM 15.8 °F 4.2 °F -3.8 °F 42% 30.37 in 10.0 mi South 9.2 mph 16.1 mph N/A   Clear
1:55 PM 16.5 °F 6.9 °F -3.5 °F 41% 30.36 in 10.0 mi SW 6.9 mph - N/A   Clear
1:56 PM 16.5 °F 6.9 °F -2.9 °F 42% 30.36 in 10.0 mi SW 6.9 mph - N/A   Clear
2:15 PM 16.3 °F 4.1 °F -3.1 °F 42% 30.36 in 10.0 mi South 10.4 mph - N/A   Clear
2:16 PM 16.3 °F 4.1 °F -2.7 °F 43% 30.35 in 10.0 mi South 10.4 mph - N/A   Clear
2:35 PM 16.7 °F 5.3 °F -1.3 °F 45% 30.34 in 10.0 mi SSE 9.2 mph - N/A   Clear
2:55 PM 15.3 °F 2.8 °F -2.6 °F 45% 30.33 in 10.0 mi SSE 10.4 mph - N/A   Clear
3:15 PM 15.3 °F 3.5 °F -2.2 °F 46% 30.32 in 10.0 mi SSE 9.2 mph 16.1 mph N/A   Clear
3:35 PM 15.3 °F 2.8 °F -0.8 °F 49% 30.30 in 10.0 mi SSE 10.4 mph 17.3 mph N/A   Clear
3:36 PM 15.3 °F 2.8 °F -0.8 °F 49% 30.30 in 10.0 mi SSE 10.4 mph 17.3 mph N/A   Clear
3:55 PM 15.4 °F 1.6 °F -0.2 °F 50% 30.29 in 10.0 mi SSE 12.7 mph 16.1 mph N/A   Clear
4:15 PM 15.8 °F 3.4 °F 0.3 °F 51% 30.27 in 10.0 mi SE 10.4 mph 16.1 mph N/A   Clear
4:35 PM 15.6 °F 2.5 °F 0.3 °F 51% 30.26 in 10.0 mi SE 11.5 mph 19.6 mph N/A   Clear
4:36 PM 15.6 °F 2.5 °F 0.3 °F 51% 30.26 in 10.0 mi SE 11.5 mph 19.6 mph N/A   Clear
4:55 PM 15.4 °F 2.3 °F 1.2 °F 54% 30.24 in 10.0 mi SE 11.5 mph 19.6 mph N/A   Clear
4:56 PM 15.4 °F 1.6 °F 1.2 °F 54% 30.24 in 10.0 mi SE 12.7 mph 19.6 mph N/A   Clear
5:15 PM 15.4 °F 1.0 °F 1.0 °F 53% 30.21 in 10.0 mi SE 13.8 mph 19.6 mph N/A   Clear
5:35 PM 15.3 °F 1.4 °F 1.4 °F 54% 30.20 in 10.0 mi SSE 12.7 mph 23.0 mph N/A   Clear
5:55 PM 15.3 °F -0.9 °F 1.4 °F 54% 30.20 in 10.0 mi SSE 17.3 mph 26.5 mph N/A   Clear
6:15 PM 15.1 °F -0.1 °F 1.6 °F 55% 30.20 in 10.0 mi SSE 15.0 mph 26.5 mph N/A   Clear
6:16 PM 14.9 °F 0.9 °F 1.4 °F 55% 30.20 in 10.0 mi SSE 12.7 mph 23.0 mph N/A   Clear
6:35 PM 14.0 °F 0.5 °F 0.1 °F 54% 30.20 in 10.0 mi SSE 11.5 mph 27.6 mph N/A   Clear
6:36 PM 14.0 °F 1.2 °F 0.3 °F 55% 30.20 in 10.0 mi SSE 10.4 mph 27.6 mph N/A   Clear
6:55 PM 13.8 °F -1.1 °F -0.2 °F 54% 30.18 in 10.0 mi SSE 13.8 mph 26.5 mph N/A   Clear
7:15 PM 13.1 °F -2.6 °F -0.8 °F 54% 30.18 in 10.0 mi SSE 15.0 mph 23.0 mph N/A   Clear
7:35 PM 13.1 °F -2.6 °F -0.2 °F 55% 30.19 in 10.0 mi SSE 15.0 mph 24.2 mph N/A   Clear
7:36 PM 13.1 °F -2.6 °F -0.4 °F 55% 30.19 in 10.0 mi SSE 15.0 mph 24.2 mph N/A   Clear
7:55 PM 13.1 °F -0.7 °F -0.8 °F 54% 30.18 in 10.0 mi SSE 11.5 mph 20.7 mph N/A   Clear
8:15 PM 13.1 °F 0.9 °F 0.1 °F 56% 30.19 in 10.0 mi South 9.2 mph 18.4 mph N/A   Clear
8:35 PM 13.1 °F 0.1 °F 0.5 °F 57% 30.18 in 10.0 mi South 10.4 mph 17.3 mph N/A   Clear
8:55 PM 13.1 °F -1.4 °F 1.2 °F 59% 30.17 in 10.0 mi SSE 12.7 mph 19.6 mph N/A   Clear
8:56 PM 13.1 °F -1.4 °F 1.2 °F 59% 30.17 in 10.0 mi SSE 12.7 mph 19.6 mph N/A   Clear
9:15 PM 13.6 °F -1.3 °F 1.9 °F 60% 30.16 in 10.0 mi SSE 13.8 mph 19.6 mph N/A   Clear
9:16 PM 13.6 °F -0.7 °F 2.1 °F 60% 30.16 in 10.0 mi SSE 12.7 mph 19.6 mph N/A   Clear
9:35 PM 13.5 °F -0.2 °F 2.3 °F 61% 30.14 in 10.0 mi SSE 11.5 mph 23.0 mph N/A   Scattered Clouds
9:55 PM 13.8 °F 0.2 °F 3.0 °F 62% 30.13 in 10.0 mi SE 11.5 mph 17.3 mph N/A   Mostly Cloudy
10:15 PM 14.0 °F 0.5 °F 3.2 °F 62% 30.12 in 10.0 mi SSE 11.5 mph 19.6 mph N/A   Scattered Clouds
10:16 PM 14.0 °F 0.5 °F 3.2 °F 62% 30.12 in 10.0 mi SSE 11.5 mph 19.6 mph N/A   Scattered Clouds
10:35 PM 14.4 °F -0.4 °F 3.7 °F 63% 30.12 in 10.0 mi SSE 13.8 mph 19.6 mph N/A   Clear
10:36 PM 14.4 °F 0.9 °F 3.7 °F 63% 30.12 in 10.0 mi SSE 11.5 mph 19.6 mph N/A   Clear
10:55 PM 14.5 °F 1.1 °F 4.1 °F 63% 30.10 in 10.0 mi SSE 11.5 mph 20.7 mph N/A   Clear
11:15 PM 14.7 °F 0.7 °F 4.3 °F 63% 30.09 in 10.0 mi SE 12.7 mph 23.0 mph N/A   Clear
11:35 PM 14.9 °F 1.6 °F 4.8 °F 64% 30.08 in 10.0 mi SSE 11.5 mph 17.3 mph N/A   Scattered Clouds
11:36 PM 14.9 °F 2.3 °F 4.8 °F 64% 30.08 in 10.0 mi SSE 10.4 mph 17.3 mph N/A   Scattered Clouds
11:55 PM 15.3 °F -0.4 °F 5.0 °F 64% 30.07 in 10.0 mi SE 16.1 mph 23.0 mph N/A   Scattered Clouds
11:56 PM 15.3 °F 0.8 °F 5.0 °F 64% 30.07 in 10.0 mi SSE 13.8 mph 23.0 mph N/A   Scattered Clouds